EW1898 Weather Reports


time (UTC)temp
C
wind
direction
speed
KPH
gust
KPH
rain 1hr
cm
rain 24hr
cm
rain mn
cm
humidity
%
barometer
mb
20260901083009 18 314 0.0 0.0 0.00 0.00 0.00 85 1016.6
20260901081512 18 314 0.0 0.0 0.00 0.00 0.00 85 1016.8
20260901080009 18 314 0.0 0.0 0.00 0.00 0.00 84 1016.7
20260901074505 18 314 0.0 0.0 0.00 0.00 0.00 84 1016.8
20260901073003 18 314 0.0 0.0 0.00 0.00 0.00 83 1017.2
20260901071503 18 314 0.0 0.0 0.00 0.00 0.00 83 1017.0
20260901070134 18 308 0.0 0.0 0.00 0.00 0.00 83 1017.2
20260901064608 18 308 0.0 0.0 0.00 0.00 0.00 84 1017.3
20260901063103 18 308 0.0 0.0 0.00 0.00 0.00 84 1017.3
20260901061607 19 308 0.0 0.0 0.00 0.00 0.00 84 1017.3
20260901060055 19 308 0.0 0.0 0.00 0.00 0.00 85 1017.4
20260901054554 19 308 0.0 0.0 0.00 0.00 0.00 86 1017.5
20260901053107 19 308 0.0 0.0 0.00 0.00 0.00 87 1017.4
20260901051553 19 308 0.0 0.0 0.00 0.00 0.00 88 1017.5
20260901050052 19 308 0.0 0.0 0.00 0.00 0.00 88 1017.4
20260901044610 19 308 0.0 0.0 0.00 0.00 0.00 87 1017.5
20260901043050 19 308 0.0 0.0 0.00 0.00 0.00 87 1017.5
20260901041548 19 308 0.0 0.0 0.00 0.00 0.00 86 1017.6
20260901040057 19 308 0.0 0.0 0.00 0.00 0.00 86 1017.4
20260901034545 19 308 0.0 0.0 0.00 0.00 0.00 84 1017.5
20260901033046 19 308 0.0 0.0 0.00 0.00 0.00 83 1017.5
20260901031545 19 308 0.0 0.0 0.00 0.00 0.00 82 1017.6
20260901030044 19 308 0.0 0.0 0.00 0.00 0.00 82 1017.6
20260901024549 19 308 0.0 0.0 0.00 0.00 0.00 81 1017.4
20260901023047 19 307 0.0 0.0 0.00 0.00 0.00 81 1017.4
20260901021603 20 307 0.0 0.0 0.00 0.00 0.00 79 1017.3
20260901020041 20 307 0.0 0.0 0.00 0.00 0.00 79 1017.4
20260901014541 20 307 0.0 0.0 0.00 0.00 0.00 77 1017.5
20260901013042 20 307 0.0 1.6 0.00 0.00 0.00 76 1017.5
20260901011539 20 307 0.0 0.0 0.00 0.00 0.00 76 1017.6
20260901010041 20 307 0.0 1.6 0.00 0.00 0.00 76 1017.6
20260901004538 20 307 0.0 0.0 0.00 0.00 0.00 75 1017.6
20260901003039 20 307 0.0 1.6 0.00 0.00 0.00 74 1017.5
20260901001540 21 307 0.0 1.6 0.00 0.00 0.00 74 1017.4
20260901000039 21 307 0.0 0.0 0.00 0.00 0.00 73 1017.4
20260831234536 21 307 0.0 0.0 0.00 0.00 0.00 72 1017.4
20260831233035 21 307 0.0 0.0 0.00 0.00 0.00 71 1017.5
20260831231553 22 307 0.0 0.0 0.00 0.00 0.00 69 1017.5
20260831230038 23 307 0.0 0.0 0.00 0.00 0.00 66 1017.6
20260831224549 23 307 0.0 1.6 0.00 0.00 0.00 63 1017.8
20260831223034 23 307 0.0 3.2 0.00 0.00 0.00 63 1017.8
20260831221542 24 292 1.6 6.4 0.00 0.00 0.00 62 1017.8
20260831220036 24 312 1.6 4.8 0.00 0.00 0.00 60 1017.7
20260831214540 23 308 0.0 6.4 0.00 0.00 0.00 61 1017.7
20260831213031 24 356 0.0 4.8 0.00 0.00 0.00 59 1017.6
20260831211531 24 303 1.6 8.0 0.00 0.00 0.00 57 1018.0
20260831210033 24 315 1.6 8.0 0.00 0.00 0.00 58 1018.0
20260831204534 24 310 0.0 8.0 0.00 0.00 0.00 57 1018.0
20260831203035 25 307 1.6 8.0 0.00 0.00 0.00 55 1018.0
20260831201531 25 307 3.2 6.4 0.00 0.00 0.00 54 1017.9
20260831200028 25 314 3.2 9.7 0.00 0.00 0.00 56 1018.1
20260831194525 25 316 1.6 12.9 0.00 0.00 0.00 56 1018.3
20260831193037 25 313 3.2 8.0 0.00 0.00 0.00 54 1018.2
20260831191537 24 317 0.0 8.0 0.00 0.00 0.00 54 1018.3
20260831190020 23 310 0.0 8.0 0.00 0.00 0.00 55 1018.6
20260831184518 23 298 0.0 4.8 0.00 0.00 0.00 56 1018.6
20260831183026 23 290 1.6 4.8 0.00 0.00 0.00 52 1018.8
20260831181517 23 303 0.0 3.2 0.00 0.00 0.00 52 1019.0
20260831180015 23 307 0.0 4.8 0.00 0.00 0.00 51 1019.1
20260831174513 23 305 0.0 4.8 0.00 0.00 0.00 55 1019.1
20260831173012 23 300 0.0 6.4 0.00 0.00 0.00 53 1019.3
20260831171511 22 291 0.0 8.0 0.00 0.00 0.00 50 1019.5
20260831170010 22 289 0.0 8.0 0.00 0.00 0.00 47 1019.5
20260831164509 22 293 1.6 6.4 0.00 0.00 0.00 52 1019.7
20260831163013 22 299 0.0 9.7 0.00 0.00 0.00 53 1019.8
20260831161507 22 300 0.0 3.2 0.00 0.00 0.00 55 1020.0
20260831160006 22 284 0.0 3.2 0.00 0.00 0.00 56 1020.0
20260831154505 22 258 0.0 1.6 0.00 0.00 0.00 56 1020.1
20260831153005 22 303 0.0 3.2 0.00 0.00 0.00 56 1020.1
20260831151504 22 299 3.2 6.4 0.00 0.00 0.00 56 1020.3
20260831150008 22 252 0.0 3.2 0.00 0.00 0.00 55 1020.4
20260831144501 21 300 0.0 4.8 0.00 0.00 0.00 58 1020.5
20260831143004 21 290 1.6 4.8 0.00 0.00 0.00 57 1020.5
20260831141601 21 298 0.0 4.8 0.00 0.00 0.00 60 1020.6
20260831134601 21 303 0.0 3.2 0.00 0.00 0.00 59 1020.4
20260831133056 22 348 0.0 1.6 0.00 0.00 0.00 57 1020.3
20260831131607 21 287 0.0 3.2 0.00 0.00 0.00 61 1020.3
20260831130106 21 118 0.0 6.4 0.00 0.00 0.00 62 1020.3
20260831124558 20 265 0.0 1.6 0.00 0.00 0.00 67 1020.3
20260831123051 19 165 0.0 4.8 0.00 0.00 0.00 69 1020.3
20260831121551 18 156 0.0 1.6 0.00 0.00 0.00 78 1020.1
20260831120046 16 151 0.0 1.6 0.00 0.00 0.00 83 1020.0
20260831114543 16 137 0.0 0.0 0.00 0.00 0.00 84 1019.9
20260831113042 16 137 0.0 0.0 0.00 0.00 0.00 84 1019.8
20260831111540 15 136 0.0 0.0 0.00 0.00 0.00 85 1019.7
20260831110039 15 136 0.0 3.2 0.00 0.00 0.00 84 1019.6
20260831104538 15 267 0.0 1.6 0.00 0.00 0.00 86 1019.6
20260831103039 15 267 0.0 1.6 0.00 0.00 0.00 88 1019.4
20260831101535 15 288 0.0 0.0 0.00 0.00 0.00 89 1019.3
20260831100046 15 288 0.0 0.0 0.00 0.00 0.00 88 1019.3
20260831094530 15 288 0.0 0.0 0.00 0.00 0.00 87 1019.0
20260831093038 16 289 0.0 1.6 0.00 0.00 0.00 87 1018.8
20260831091522 16 288 0.0 1.6 0.00 0.00 0.00 85 1018.5
20260831090020 16 289 0.0 1.6 0.00 0.00 0.00 86 1018.3
20260831084519 16 288 0.0 0.0 0.00 0.00 0.00 89 1018.3